Location: Jaite
(41.2884°N, 81.5737°W)
Time: 06:02:18
(UTC+00:00)

Cosmos 2278 Rocket - Pass Details

Date: 15 November 2025
Orbit: 841 x 843 km, 71.0° (Epoch: 04 December)

Event Time Altitude Azimuth Distance (km) Brightness Sun altitude
Exits shadow 10:25:20 21° 223° (SW) 1,790 3.6 -20.6°
Drops below altitude 10° 10:27:49 10° 201° (SSW) 2,451 4.5 -20.1°
Sets 10:30:34 0° 190° (S) 3,382 5.3 -19.6°
